Location: Moscow
(55.7500°N, 37.5830°E)
Time: 21:46:53
(UTC+03:00)

Vanguard 2 - Pass Details

Date: 02 December 2021
Orbit: 553 x 2936 km, 32.9° (Epoch: 15 January)

Event Time Altitude Azimuth Distance (km) Brightness Sun altitude
Rises 16:33:11 0° 227° (SW) 3,610 13.3 -4.4°
Reaches altitude 10° 16:37:12 10° 200° (SSW) 3,075 11.5 -4.9°
Maximum altitude 16:40:30 13° 174° (S) 3,174 11.1 -5.3°
Drops below altitude 10° 16:44:28 10° 150° (SSE) 3,830 11.1 -5.8°
Sets 16:50:53 0° 128° (SE) 5,438 11.6 -6.5°
